Petersburg, WV

2:49 PM EDT on August 22, 2017 (GMT -0400)
Petersburg

Weather History for KW99 - August, 2013

Change the Weather History Date:

Wednesday, August 7, 2013

  Actual Average (KEKN) Record (KEKN)
Temperature  
Mean Temperature 74 °F -  
Max Temperature 84 °F 80 °F 98 °F (1918)
Min Temperature 64 °F 58 °F 44 °F (1957)
Cooling Degree Days 9    
Growing Degree Days 24 (Base 50)    
Moisture  
Dew Point 67 °F    
Average Humidity 91    
Maximum Humidity 96    
Minimum Humidity 60    
Precipitation  
Precipitation 0.18 in - - ()
Sea Level Pressure  
Sea Level Pressure 30.05 in    
Wind  
Wind Speed 0 mph (SSE)    
Max Wind Speed 5 mph    
Max Gust Speed -    
Visibility 7 miles    
Events Rain , Thunderstorm    
Averages and records for this station are not official NWS values.
T = Trace of Precipitation, MM = Missing Value Source: NWS Daily Summary

Daily Weather History Graph

Daily Weather History Graph

Search for Another Location

Airport or City:

Trip Planner

Search our weather history database for the weather conditions in past years. The results will help you decide how hot, cold, wet, or windy it might be!

Date:

Astronomy

Aug. 07, 2013 Rise Set
Actual Time 6:22 AM EDT 8:21 PM EDT
Civil Twilight 5:53 AM EDT 8:50 PM EDT
Nautical Twilight 5:18 AM EDT 9:25 PM EDT
Astronomical Twilight 4:39 AM EDT 10:03 PM EDT
Moon 7:08 AM EDT (8/7) 8:28 PM EDT (8/7)
Length of Visible Light 14h 56m
Length of Day
13h 58m
New Moon, 1% of the Moon is Illuminated
Aug 7
New Moon
Aug 14
First Quarter
Aug 20
Full
Aug 28
Last Quarter
Sep 5
New

Hourly Weather History & Observations

Time (EDT) Temp. Heat Index Dew Point Humidity Pressure Visibility Wind Dir Wind Speed Gust Speed Precip Events Conditions
12:15 AM 70.2 °F - 67.8 °F 92% 30.05 in 7.0 mi Calm Calm - N/A   Overcast
12:35 AM 70.0 °F - 67.6 °F 92% 30.05 in 10.0 mi Calm Calm - N/A   Overcast
12:55 AM 70.3 °F - 68.0 °F 92% 30.06 in 10.0 mi Calm Calm - N/A   Overcast
1:15 AM 69.8 °F - 67.5 °F 92% 30.05 in 7.0 mi Calm Calm - N/A   Overcast
1:35 AM 68.9 °F - 66.6 °F 92% 30.05 in 7.0 mi Calm Calm - N/A   Mostly Cloudy
1:55 AM 68.0 °F - 66.2 °F 94% 30.05 in 5.0 mi Calm Calm - N/A   Mostly Cloudy
2:15 AM 68.0 °F - 66.2 °F 94% 30.05 in 7.0 mi Calm Calm - N/A   Overcast
2:35 AM 68.4 °F - 66.7 °F 95% 30.05 in 7.0 mi Calm Calm - N/A   Overcast
2:55 AM 67.5 °F - 65.8 °F 95% 30.05 in 4.0 mi Calm Calm - N/A   Scattered Clouds
3:15 AM 66.4 °F - 64.8 °F 95% 30.05 in 5.0 mi Calm Calm - N/A   Scattered Clouds
3:35 AM 67.1 °F - 65.5 °F 95% 30.05 in 4.0 mi Calm Calm - N/A   Mostly Cloudy
3:55 AM 67.5 °F - 66.2 °F 96% 30.05 in 4.0 mi Calm Calm - N/A   Overcast
4:15 AM 67.3 °F - 66.2 °F 96% 30.06 in 5.0 mi Calm Calm - N/A   Overcast
4:35 AM 67.1 °F - 66.0 °F 96% 30.06 in 7.0 mi Calm Calm - N/A   Mostly Cloudy
4:55 AM 66.4 °F - 65.1 °F 96% 30.06 in 5.0 mi Calm Calm - N/A   Mostly Cloudy
5:15 AM 66.4 °F - 65.1 °F 96% 30.05 in 3.0 mi Calm Calm - N/A   Mostly Cloudy
5:35 AM 66.2 °F - 64.9 °F 96% 30.05 in 4.0 mi Calm Calm - N/A   Overcast
5:55 AM 66.4 °F - 65.1 °F 96% 30.05 in 5.0 mi Calm Calm - N/A Rain , Thunderstorm Light Thunderstorms and Rain
6:15 AM 66.6 °F - 65.1 °F 95% 30.06 in 5.0 mi Calm Calm - N/A   Overcast
6:35 AM 66.0 °F - 64.8 °F 96% 30.06 in 3.0 mi Calm Calm - N/A   Mostly Cloudy
6:55 AM 64.9 °F - 63.9 °F 96% 30.06 in 3.0 mi Calm Calm - N/A   Scattered Clouds
7:15 AM 65.3 °F - 64.2 °F 96% 30.05 in 4.0 mi Calm Calm - N/A   Mostly Cloudy
7:35 AM 64.8 °F - 63.7 °F 96% 30.06 in 7.0 mi Calm Calm - N/A   Mostly Cloudy
7:55 AM 65.7 °F - 64.4 °F 96% 30.07 in 7.0 mi Calm Calm - N/A   Mostly Cloudy
8:15 AM 65.8 °F - 64.0 °F 94% 30.07 in 5.0 mi Calm Calm - N/A   Overcast
8:35 AM 66.2 °F - 64.4 °F 94% 30.07 in 5.0 mi Calm Calm - N/A   Overcast
8:55 AM 68.9 °F - 66.2 °F 91% 30.07 in 7.0 mi Calm Calm - N/A   Overcast
9:15 AM 70.2 °F - 66.4 °F 88% 30.07 in 7.0 mi Calm Calm - N/A   Overcast
9:35 AM 71.4 °F - 66.9 °F 86% 30.06 in 7.0 mi Calm Calm - N/A   Overcast
9:55 AM 71.2 °F - 66.4 °F 85% 30.06 in 10.0 mi Calm Calm - N/A   Overcast
10:15 AM 72.7 °F - 67.6 °F 84% 30.05 in 10.0 mi Calm Calm - N/A   Overcast
10:35 AM 75.2 °F - 68.5 °F 80% 30.05 in 10.0 mi Calm Calm - N/A   Scattered Clouds
10:55 AM 77.0 °F - 69.1 °F 76% 30.04 in 10.0 mi Calm Calm - N/A   Clear
11:15 AM 78.4 °F - 69.4 °F 74% 30.05 in 10.0 mi Calm Calm - N/A   Clear
11:35 AM 81.0 °F 84.9 °F 71.2 °F 72% 30.04 in 10.0 mi Calm Calm - N/A   Clear
2:15 PM 84.0 °F 87.6 °F 68.9 °F 60% 30.00 in 10.0 mi SSE 4.6 mph - N/A   Scattered Clouds
2:55 PM 83.7 °F 89.2 °F 72.0 °F 68% 29.99 in 10.0 mi Calm Calm - N/A   Scattered Clouds
6:15 PM 73.0 °F - 68.5 °F 86% 30.02 in 10.0 mi Calm Calm - N/A   Overcast
6:35 PM 71.8 °F - 67.3 °F 86% 30.01 in 10.0 mi Calm Calm - N/A Rain , Thunderstorm Light Thunderstorms and Rain
6:55 PM 71.2 °F - 66.6 °F 85% 30.02 in 10.0 mi Calm Calm - N/A   Mostly Cloudy
7:35 PM 68.9 °F - 66.6 °F 92% 30.03 in 5.0 mi Calm Calm - 0.02 in Rain Rain
7:55 PM 68.2 °F - 66.0 °F 93% 30.04 in 7.0 mi Calm Calm - 0.05 in Rain Light Rain
8:15 PM 67.8 °F - 66.0 °F 94% 30.05 in 2.5 mi Calm Calm - 0.04 in Rain Heavy Rain
8:35 PM 68.7 °F - 66.9 °F 94% 30.05 in 2.5 mi Calm Calm - 0.11 in Rain Rain
8:55 PM 69.8 °F - 68.2 °F 95% 30.05 in 7.0 mi Calm Calm - 0.12 in Rain Light Rain
9:15 PM 70.9 °F - 69.3 °F 95% 30.05 in 7.0 mi Calm Calm - N/A   Scattered Clouds
9:35 PM 71.1 °F - 69.6 °F 95% 30.06 in 7.0 mi Calm Calm - N/A   Scattered Clouds
9:55 PM 71.1 °F - 69.8 °F 96% 30.07 in 10.0 mi Calm Calm - 0.01 in   Mostly Cloudy
10:15 PM 71.1 °F - 69.8 °F 96% 30.07 in 10.0 mi Calm Calm - N/A   Overcast
10:35 PM 71.1 °F - 69.4 °F 95% 30.07 in 10.0 mi Calm Calm - N/A   Overcast
10:55 PM 70.3 °F - 68.9 °F 95% 30.06 in 10.0 mi Calm Calm - N/A   Overcast
11:15 PM 70.3 °F - 68.7 °F 95% 30.06 in 10.0 mi Calm Calm - N/A   Overcast
11:35 PM 70.3 °F - 68.9 °F 95% 30.05 in 10.0 mi Calm Calm - N/A   Overcast
11:55 PM 70.3 °F - 68.5 °F 94% 30.05 in 10.0 mi Calm Calm - N/A   Overcast